Regional Weather Roundup
Issued by NWS Northern Indiana

Home | Current Version | Previous Version | Graphics & Text | Print | Product List | Glossary On
Versions: 1 2 3 4 5 6 7 8 9 10 11 12 13 14 15 16 17 18 19 20 21 22 23 24 25 26 27 28 29 30 31 32 33 34 35 36 37 38 39 40 41 42 43 44 45 46 47 48 49 50
000
ASUS43 KIWX 061900
RWRIWX

KIWX WEATHER ROUNDUP
NATIONAL WEATHER SERVICE NORTHERN INDIANA
200 PM EST FRI MAR 06 2015

NOTE: "FAIR" INDICATES FEW OR NO CLOUDS BELOW 12,000 FEET WITH NO
SIGNIFICANT WEATHER AND/OR OBSTRUCTIONS TO VISIBILITY.

* THESE STATIONS ARE NOT UNDER NWS QUALITY CONTROL. THEY ALSO MAY NOT
  REPORT WEATHER SUCH AS PRECIPITATION OR FOG.

INZ001>027-062000-
NORTHERN INDIANA

CITY           SKY/WX    TMP DP  RH WIND       PRES   REMARKS
GARY*          MOSUNNY   25   5  42 S12G29    30.32F WCI  14
SOUTH BEND     SUNNY     21   7  54 S17       30.33F WCI   7
ELKHART*       SUNNY     19   1  45 SW9       30.36F WCI   9
GOSHEN         SUNNY     19   5  54 S17       30.36F WCI   4
ANGOLA*        SUNNY     18   1  49 SW10      30.35F WCI   6
FORT WAYNE     MOSUNNY   20   9  62 SW16      30.40F WCI   6
PERU/GRISSOM   SUNNY     22  10  59 S15       30.37F WCI   9

$$
INZ028>050-062000-
CENTRAL INDIANA

CITY           SKY/WX    TMP DP  RH WIND       PRES   REMARKS
LAFAYETTE      PTSUNNY   23   6  48 S15G22    30.39F WCI  10
KOKOMO*          N/A    N/A N/A N/A MISG        N/A
MUNCIE*        SUNNY     23   8  52 SW15      30.40F WCI  10
INDIANAPOLIS   MOSUNNY   26   8  46 S15       30.40F WCI  14

$$
MIZ043>046-050>051-056>058-064>065-071>073-077>080-062000-
SOUTHWEST LOWER MICHIGAN

CITY           SKY/WX    TMP DP  RH WIND       PRES   REMARKS
BATTLE CREEK   SUNNY     19   5  54 S15       30.30F WCI   5
BENTON HARBOR  MOSUNNY   20   4  50 S16G23    30.31F WCI   6
COLDWATER*     SUNNY     19   1  45 S10G16    30.33F WCI   7
HILLSDALE*     SUNNY     19   0  43 SW16      30.32F WCI   5
HOLLAND        MOSUNNY   21   5  50 S16       30.29F WCI   7
GRAND RAPIDS   PTSUNNY   20   2  45 SW18G24   30.28F WCI   5
KALAMAZOO      SUNNY     20   5  52 S13       30.32F WCI   7
STURGIS*       SUNNY     18   3  53 SW15      30.33F WCI   3
THREE RIVERS*  FAIR      19   5  54 SW15      30.35F WCI   5

$$
OHZ001>008-015>018-024>025-062000-
NORTHWEST OHIO

CITY           SKY/WX    TMP DP  RH WIND       PRES   REMARKS
DEFIANCE       MOSUNNY   21   7  54 SW15G24   30.41F WCI   8
FINDLAY        SUNNY     22  11  62 SW16      30.41F WCI   8
TOLEDO EXPRESS SUNNY     19   5  54 SW17G23   30.40F WCI   4
TOLEDO METCALF MOSUNNY   20   7  57 SW17      30.42F WCI   5
LIMA           SUNNY     23  10  57 SW14      30.41F WCI  11

$$
AND FOR LAKE MICHIGAN COASTAL AND OPEN LAKE BUOY OBSERVATIONS

STATION/POSITION TEMP    WIND        PRES    VSBY  WAVE
                 AIR SEA DIR/SP/G                  HT/PER
                 (F)     (DEG/KT/KT) (MB)    (MI)  (FT/S)
CALUMET HARBOR    20     170/ 15/ 22 1024.9F
MICHIGAN CITY     17     170/ 18/ 23   N/A
SAINT JOSEPH      20     170/  9/ 19 1026.8F

$$
&&



USA.gov is the U.S. government's official web portal to all federal, state and local government web resources and services.